User: anonymous   Login
Location: Unspecified
(0.0000°N, 0.0000°E)
Time: 14:14:43
(UTC+00:00)
Language:

GONETS D1M 1 - Orbit

View from above orbital plane
View from above orbital plane
View from above satellite
View from above satellite

Ground track
Ground track

The orbit data is extracted from the following two-line orbital elements,

1 28908U 05048A   18267.62978316 +.00000041 +00000-0 +18571-3 0  9990
2 28908 082.4678 312.3981 0006927 001.9130 155.2380 12.55488322584695
Epoch (UTC): 24 September 2018 15:06:53
Eccentricity: 0.0006927
inclination: 82.4678°
perigee height: 1436 km
apogee height: 1447 km
right ascension of ascending node: 312.3981°
argument of perigee: 1.9130°
revolutions per day: 12.55488322
mean anomaly at epoch: 155.2380°
orbit number at epoch: 58469

The dashed part of the orbit path shows where the satellite is in the earth's shadow,  

DLR